Location: Katherine
(14.4670°S, 132.2670°E)
Time: 17:10:58
(UTC+09:30)

ISS - Visible Passes

Search period start: 11 May 2021 00:00
Search period end: 21 May 2021 00:00
Orbit: 418 x 421 km, 51.6° (Epoch: 11 May)

Date Brightness Start Highest point End Pass type
(mag) Time Alt. Az. Time Alt. Az. Time Alt. Az.
11 May -2.2 19:56:46 10° WSW 19:59:52 35° NW 20:00:33 31° NNW visible
12 May -3.8 19:09:08 10° SW 19:12:31 86° NW 19:15:52 10° NE visible
14 May -0.5 19:12:06 10° W 19:14:16 16° NW 19:16:25 10° NNW visible
18 May -2.0 06:08:08 10° NNW 06:11:17 37° NE 06:14:27 10° ESE visible
19 May -0.7 05:21:38 10° NNE 05:23:56 17° NE 05:26:14 10° E visible
20 May -3.2 06:09:56 10° WNW 06:13:05 36° SW 06:16:16 10° SSE visible
